Pipestone, MN

6:20 AM CST on February 23, 2017 (GMT -0600)
Pipestone Municipal

Weather History for KPQN - May, 2012

Change the Weather History Date:

Saturday, May 5, 2012

  Actual Average Record
Temperature  
Mean Temperature 56 °F -  
Max Temperature 62 °F 62 °F 89 °F (2004)
Min Temperature 51 °F 41 °F 35 °F (2014)
Degree Days  
Heating Degree Days 8    
Growing Degree Days 6 (Base 50)    
Moisture  
Dew Point 55 °F    
Average Humidity 91    
Maximum Humidity 100    
Minimum Humidity 82    
Precipitation  
Precipitation 1.02 in - - ()
Sea Level Pressure  
Sea Level Pressure 29.87 in    
Wind  
Wind Speed 10 mph (East)    
Max Wind Speed 29 mph    
Max Gust Speed 37 mph    
Visibility 6 miles    
Events Fog , Rain , Thunderstorm    
Averages and records for this station are not official NWS values.
T = Trace of Precipitation, MM = Missing Value Source: NWS Daily Summary

Daily Weather History Graph

Daily Weather History Graph

Search for Another Location

Airport or City:

Trip Planner

Search our weather history database for the weather conditions in past years. The results will help you decide how hot, cold, wet, or windy it might be!

Date:

Astronomy

May. 05, 2012 Rise Set
Actual Time 6:10 AM CDT 8:33 PM CDT
Civil Twilight 5:38 AM CDT 9:06 PM CDT
Nautical Twilight 4:58 AM CDT 9:46 PM CDT
Astronomical Twilight 4:13 AM CDT 10:31 PM CDT
Moon 8:28 PM CDT (5/5) 5:34 AM CDT (5/5)
Length of Visible Light 15h 27m
Length of Day
14h 23m
Full, 100% of the Moon is Illuminated
May 5
Full
May 5
Full
May 12
Last Quarter
May 20
New
May 28
First Quarter

Hourly Weather History & Observations

Time (CDT) Temp. Dew Point Humidity Pressure Visibility Wind Dir Wind Speed Gust Speed Precip Events Conditions
12:12 AM 60.8 °F 57.2 °F 88% 29.91 in 7.0 mi East 3.5 mph - N/A   Mostly Cloudy
12:32 AM 60.8 °F 57.2 °F 88% 29.91 in 7.0 mi East 4.6 mph - N/A   Overcast
12:52 AM 60.8 °F 57.2 °F 88% 29.92 in 5.0 mi East 4.6 mph - N/A   Overcast
1:12 AM 59.0 °F 57.2 °F 94% 29.92 in 5.0 mi ENE 4.6 mph - N/A   Overcast
1:32 AM 59.0 °F 57.2 °F 94% 29.92 in 4.0 mi ENE 4.6 mph - N/A   Overcast
1:52 AM 59.0 °F 57.2 °F 94% 29.92 in 5.0 mi ENE 4.6 mph - N/A   Overcast
2:12 AM 59.0 °F 57.2 °F 94% 29.91 in 4.0 mi ENE 3.5 mph - N/A   Overcast
2:32 AM 57.2 °F 55.4 °F 94% 29.91 in 0.8 mi ENE 5.8 mph - N/A   Overcast
2:52 AM 57.2 °F 55.4 °F 94% 29.91 in 0.8 mi ENE 6.9 mph - N/A   Overcast
3:12 AM 57.2 °F 55.4 °F 94% 29.91 in 0.8 mi ENE 5.8 mph - N/A   Overcast
3:32 AM 55.4 °F 55.4 °F 100% 29.90 in 0.5 mi East 8.1 mph 16.1 mph N/A Fog Fog
3:52 AM 55.4 °F 55.4 °F 100% 29.91 in 0.5 mi East 6.9 mph - N/A Fog Fog
4:12 AM 55.4 °F 53.6 °F 94% 29.90 in 0.5 mi East 9.2 mph - N/A   Drizzle
4:32 AM 55.4 °F 53.6 °F 94% 29.90 in 0.5 mi East 9.2 mph - N/A   Drizzle
4:52 AM 55.4 °F 53.6 °F 94% 29.89 in 0.5 mi East 9.2 mph - N/A   Drizzle
5:12 AM 55.4 °F 53.6 °F 94% 29.90 in 0.8 mi ENE 8.1 mph - N/A   Light Drizzle
5:32 AM 55.4 °F 53.6 °F 94% 29.90 in 0.5 mi East 5.8 mph - N/A   Drizzle
5:52 AM 55.4 °F 53.6 °F 94% 29.89 in 0.8 mi East 8.1 mph - N/A   Drizzle
6:12 AM 53.6 °F 53.6 °F 100% 29.88 in 0.5 mi East 6.9 mph - N/A   Drizzle
6:32 AM 53.6 °F 53.6 °F 100% 29.89 in 0.2 mi East 8.1 mph - N/A   Drizzle
6:52 AM 55.4 °F 53.6 °F 94% 29.89 in 0.2 mi East 8.1 mph - N/A   Drizzle
7:13 AM 55.4 °F 53.6 °F 94% 29.88 in 0.2 mi East 10.4 mph - N/A   Drizzle
7:32 AM 55.4 °F 53.6 °F 94% 29.88 in 0.5 mi East 9.2 mph 16.1 mph N/A Rain Light Rain
7:52 AM 55.4 °F 53.6 °F 94% 29.88 in 0.5 mi East 8.1 mph - N/A Rain Light Rain
8:13 AM 55.4 °F 53.6 °F 94% 29.88 in 0.5 mi East 11.5 mph 18.4 mph N/A   Overcast
8:32 AM 55.4 °F 55.4 °F 100% 29.88 in 0.5 mi East 10.4 mph 17.3 mph N/A   Light Drizzle
8:52 AM 55.4 °F 55.4 °F 100% 29.89 in 0.5 mi East 11.5 mph 16.1 mph N/A   Light Drizzle
9:12 AM 55.4 °F 55.4 °F 100% 29.90 in 0.8 mi East 11.5 mph 18.4 mph N/A Thunderstorm Unknown
9:52 AM 55.4 °F 55.4 °F 100% 29.92 in 1.2 mi East 9.2 mph - N/A Thunderstorm Unknown
10:12 AM 55.4 °F 53.6 °F 94% 29.92 in 2.0 mi East 12.7 mph 17.3 mph N/A Thunderstorm Overcast
10:32 AM 55.4 °F 53.6 °F 94% 29.88 in 2.5 mi East 13.8 mph 27.6 mph N/A Rain Light Rain
10:52 AM 55.4 °F 53.6 °F 94% 29.98 in 2.5 mi NNW 28.8 mph 36.8 mph 0.12 in Rain , Thunderstorm Heavy Thunderstorms and Rain
11:12 AM 51.8 °F 51.8 °F 100% 29.97 in 1.2 mi NNE 19.6 mph 34.5 mph 0.62 in Rain , Thunderstorm Heavy Thunderstorms and Rain
11:32 AM 51.8 °F 51.8 °F 100% 29.89 in 10.0 mi NE 19.6 mph 27.6 mph 0.04 in Rain , Thunderstorm Light Thunderstorms and Rain
11:52 AM 53.6 °F 51.8 °F 94% 29.88 in 10.0 mi East 12.7 mph 20.7 mph N/A Thunderstorm Thunderstorm
12:12 PM 53.6 °F 51.8 °F 94% 29.88 in 10.0 mi East 12.7 mph 23.0 mph N/A Thunderstorm Clear
12:32 PM 53.6 °F 51.8 °F 94% 29.88 in 10.0 mi ESE 12.7 mph 19.6 mph N/A Thunderstorm Clear
12:52 PM 55.4 °F 51.8 °F 88% 29.90 in 10.0 mi East 16.1 mph 19.6 mph N/A   Clear
1:12 PM 55.4 °F 51.8 °F 88% 29.92 in 10.0 mi East 6.9 mph 17.3 mph N/A   Scattered Clouds
1:32 PM 55.4 °F 51.8 °F 88% 29.91 in 10.0 mi ENE 11.5 mph 17.3 mph N/A   Overcast
1:52 PM 55.4 °F 53.6 °F 94% 29.89 in 10.0 mi ENE 12.7 mph 19.6 mph N/A   Overcast
2:12 PM 57.2 °F 53.6 °F 88% 29.87 in 10.0 mi East 13.8 mph 24.2 mph N/A   Overcast
2:32 PM 57.2 °F 55.4 °F 94% 29.86 in 10.0 mi East 20.7 mph 26.5 mph N/A   Overcast
2:52 PM 59.0 °F 55.4 °F 88% 29.87 in 10.0 mi ESE 20.7 mph 27.6 mph N/A   Mostly Cloudy
3:12 PM 59.0 °F 55.4 °F 88% 29.86 in 10.0 mi ESE 24.2 mph 31.1 mph N/A   Overcast
3:52 PM 59.0 °F 55.4 °F 88% 29.87 in 10.0 mi ESE 19.6 mph 26.5 mph N/A   Overcast
4:12 PM 59.0 °F 55.4 °F 88% 29.87 in 10.0 mi ESE 17.3 mph 24.2 mph N/A   Overcast
4:32 PM 60.8 °F 55.4 °F 82% 29.87 in 10.0 mi ESE 18.4 mph 23.0 mph N/A   Overcast
4:52 PM 60.8 °F 55.4 °F 82% 29.86 in 10.0 mi ESE 19.6 mph 23.0 mph N/A   Overcast
5:12 PM 62.6 °F 57.2 °F 82% 29.85 in 10.0 mi ESE 16.1 mph 25.3 mph N/A   Overcast
5:33 PM 60.8 °F 57.2 °F 88% 29.85 in 10.0 mi East 15.0 mph 21.9 mph N/A   Overcast
5:52 PM 60.8 °F 55.4 °F 82% 29.85 in 10.0 mi East 17.3 mph 25.3 mph N/A   Overcast
6:12 PM 60.8 °F 55.4 °F 82% 29.85 in 10.0 mi East 15.0 mph 24.2 mph N/A   Overcast
6:32 PM 60.8 °F 57.2 °F 88% 29.85 in 10.0 mi East 15.0 mph 21.9 mph N/A   Overcast
6:52 PM 60.8 °F 57.2 °F 88% 29.85 in 10.0 mi East 15.0 mph 21.9 mph N/A   Overcast
7:12 PM 62.6 °F 57.2 °F 82% 29.84 in 10.0 mi East 15.0 mph 20.7 mph N/A   Mostly Cloudy
7:32 PM 60.8 °F 57.2 °F 88% 29.83 in 10.0 mi ESE 19.6 mph 26.5 mph N/A   Overcast
7:52 PM 60.8 °F 57.2 °F 88% 29.82 in 10.0 mi ESE 23.0 mph 27.6 mph N/A   Mostly Cloudy
8:12 PM 60.8 °F 57.2 °F 88% 29.81 in 10.0 mi ESE 18.4 mph 26.5 mph N/A   Mostly Cloudy
8:33 PM 60.8 °F 55.4 °F 82% 29.81 in 10.0 mi ESE 18.4 mph 23.0 mph N/A   Mostly Cloudy
8:52 PM 60.8 °F 55.4 °F 82% 29.79 in 10.0 mi ESE 19.6 mph 29.9 mph N/A   Scattered Clouds
9:11 PM 60.8 °F 55.4 °F 82% 29.79 in 10.0 mi ESE 21.9 mph 29.9 mph N/A Thunderstorm Clear
9:32 PM 60.8 °F 55.4 °F 82% 29.79 in 10.0 mi ESE 18.4 mph 25.3 mph N/A Thunderstorm Clear
9:52 PM 60.8 °F 57.2 °F 88% 29.78 in 10.0 mi ESE 18.4 mph 26.5 mph N/A Thunderstorm Clear
10:13 PM 62.6 °F 57.2 °F 82% 29.76 in 10.0 mi ESE 23.0 mph 29.9 mph N/A Thunderstorm Scattered Clouds
10:32 PM 62.6 °F 57.2 °F 82% 29.77 in 10.0 mi SE 18.4 mph 32.2 mph N/A Thunderstorm Overcast
10:52 PM 62.6 °F 57.2 °F 82% 29.81 in 10.0 mi NE 16.1 mph 32.2 mph N/A Thunderstorm Thunderstorm
11:12 PM 60.8 °F 55.4 °F 82% 29.74 in 10.0 mi ENE 21.9 mph 31.1 mph N/A Thunderstorm Unknown
11:32 PM 60.8 °F 57.2 °F 88% 29.82 in 7.0 mi NNE 6.9 mph 31.1 mph 0.09 in Rain , Thunderstorm Thunderstorms and Rain
11:52 PM 59.0 °F 57.2 °F 94% 29.81 in 10.0 mi NE 15.0 mph 25.3 mph 0.28 in Rain , Thunderstorm Thunderstorms and Rain